Tracking 23731 objects as of 26-Sep-2021
HD Live streaming from Space Station
objects crossing your sky now

STARLINK-2534

Track STARLINK-2534 now!
10-day predictions
STARLINK-2534 is classified as:


NORAD ID: 48311
Int'l Code: 2021-036AM
Perigee: 553.2 km
Apogee: 555.5 km
Inclination: 53.1 °
Period: 95.6 minutes
Semi major axis: 6925 km
RCS: Unknown
Launch date: April 29, 2021
Source: United States (US)
Launch site: AIR FORCE EASTERN TEST RANGE (AFETR)
aabbcc
Your satellite tracking list
Your tracking list is empty




NASA's NSSDC Master Catalog

Two Line Element Set (TLE):
1 48311U 21036AM  21269.05783968  .00001712  00000-0  13381-3 0  9995
2 48311  53.0555 189.3601 0001665  50.6631 309.4505 15.06395315 23794
Source of the keplerian elements: AFSPC